sim
Sign-in with your pilot id or email,
or register
Callsign
Passwort

Schedule Details

Flight Number: RYR3525 (2)
Departure: London Luton Airport (EGGW) at 13:20
Arrival: Fuerteventura Airport (GCFV) at 17:40
Route: Ryanair Passenger Schedule. Enter filed route here before submitting Pirep.

Weather Information
Getting current METAR information for EGGW 211720Z AUTO 19007G18KT 140V220 9999 NCD 20/09 Q1024
Getting current METAR information for GCFV 211730Z 02017KT 350V050 CAVOK 27/18 Q1013

Schedule Frequency

Route Map